EW5319 Weather Reports


time (UTC)temp
C
wind
direction
speed
KPH
gust
KPH
rain 1hr
cm
rain 24hr
cm
rain mn
cm
humidity
%
barometer
mb
20260506123630 8 248 0.0 1.6 0.00 3.15 0.46 1 1002.6
20260506122539 8 248 0.0 1.6 0.00 3.15 0.46 1 1003.0
20260506121538 8 0.0 0.0 0.00 3.15 0.46 1 1002.7
20260506120608 8 0.0 0.0 0.00 3.15 0.46 1 1002.6
20260506115537 8 0.0 0.0 0.00 3.15 0.46 1 1002.2
20260506114606 8 0.0 0.0 0.00 3.15 0.46 1 1002.1
20260506113536 8 0.0 0.0 0.00 3.15 0.46 1 1002.0
20260506112605 8 0.0 0.0 0.00 3.15 0.46 1 1001.9
20260506111604 8 0.0 0.0 0.00 3.15 0.46 1 1001.5
20260506110533 8 293 0.0 1.6 0.00 3.15 0.46 1 1001.5
20260506105533 8 0.0 0.0 0.00 3.15 0.46 1 1001.6
20260506104532 8 293 0.0 4.8 0.03 3.15 0.46 1 1001.8
20260506103601 8 0.0 0.0 0.05 3.15 0.46 1 1001.5
20260506102620 8 0.0 0.0 0.05 3.15 0.46 1 1000.9
20260506101630 8 0.0 0.0 0.05 3.15 0.46 1 1001.1
20260506100559 8 293 0.0 1.6 0.08 3.15 0.46 1 1001.3
20260506095628 8 293 0.0 1.6 0.08 3.15 0.46 1 1001.3
20260506094527 8 293 0.0 4.8 0.08 3.12 0.43 1 1001.5
20260506093556 8 3 3.2 8.0 0.08 3.10 0.41 1 1001.9
20260506092525 8 332 3.2 6.4 0.13 3.10 0.41 1 1001.5
20260506091554 8 324 3.2 11.3 0.15 3.10 0.41 1 1001.5
20260506090553 8 0.0 0.0 0.13 3.07 0.38 1 1001.0
20260506085722 8 0.0 0.0 0.15 3.07 0.38 1 1000.8
20260506084641 8 0.0 0.0 0.15 3.05 0.36 1 1001.1
20260506083650 8 0.0 0.0 0.15 3.02 0.33 1 1001.4
20260506082549 8 0.0 0.0 0.10 2.97 0.28 1 1001.7
20260506081918 8 0.0 1.6 0.10 2.95 0.25 1 1001.6
20260506080547 8 0.0 0.0 0.10 2.95 0.25 1 1001.3
20260506072614 8 270 0.0 4.8 0.03 2.87 0.18 1 1001.5
20260506071612 8 0.0 0.0 0.03 2.84 0.15 1 1001.4
20260506070611 8 0.0 0.0 0.03 2.84 0.15 1 1001.3
20260506061538 8 0.0 0.0 0.08 2.82 0.13 1 1001.5
20260506060537 8 0.0 0.0 0.08 2.82 0.13 1 1001.5
20260506050533 8 0.0 0.0 0.05 2.74 0.05 1 1001.9
20260506044532 9 0.0 0.0 0.08 2.74 0.05 1 1002.5
20260506043651 9 0.0 0.0 0.10 2.72 0.03 1 1002.5
20260506042530 9 0.0 0.0 0.13 2.72 0.03 1 1002.5
20260506041629 9 0.0 0.0 0.18 2.72 0.03 1 1002.8
20260506040529 9 0.0 0.0 0.20 2.69 0.00 1 1002.6
20260506035528 10 0.0 0.0 0.25 2.69 2.69 1 1002.7
20260506034627 10 0.0 1.6 0.25 2.67 2.67 1 1002.6
20260506033556 10 0.0 0.0 0.28 2.62 2.62 1 1002.6
20260506032556 10 0.0 0.0 0.28 2.59 2.59 1 1002.7
20260506031625 10 270 1.6 4.8 0.28 2.54 2.54 1 1002.7
20260506030624 10 270 0.0 1.6 0.28 2.49 2.49 1 1002.5
20260506025613 10 270 1.6 4.8 0.28 2.41 2.41 1 1002.3
20260506024552 10 270 1.6 4.8 0.28 2.39 2.39 1 1002.5
20260506023622 10 270 1.6 4.8 0.20 2.31 2.31 1 1002.4
20260506022611 10 0.0 1.6 0.20 2.29 2.29 1 1002.5
20260506021540 10 270 1.6 6.4 0.15 2.24 2.24 1 1002.7
20260506020619 10 0.0 0.0 0.13 2.18 2.18 1 1002.5
20260506015618 10 0.0 0.0 0.13 2.13 2.13 1 1002.5
20260506014547 10 0.0 0.0 0.10 2.11 2.11 1 1002.3
20260506013616 10 0.0 0.0 0.13 2.11 2.11 1 1002.3
20260506012615 10 0.0 0.0 0.10 2.08 2.08 1 1002.2
20260506011645 10 0.0 0.0 0.10 2.08 2.08 1 1001.9
20260506010634 10 0.0 0.0 0.08 2.06 2.06 1 1001.9
20260506005612 10 0.0 0.0 0.03 2.01 2.01 1 1001.9
20260506004541 10 0.0 0.0 0.08 2.01 2.01 1 1001.6
20260506003541 10 0.0 0.0 0.08 1.98 1.98 1 1001.8
20260506002610 10 0.0 0.0 0.10 1.98 1.98 1 1001.8
20260506001629 10 0.0 0.0 0.30 1.98 1.98 1 1001.6
20260506000639 10 270 0.0 1.6 0.36 1.98 1.98 1 1001.6
20260505235538 10 270 0.0 4.8 0.41 1.98 1.98 1 1002.2
20260505234537 10 270 1.6 4.8 0.48 1.93 1.93 1 1002.0
20260505233617 10 0.0 0.0 0.51 1.91 1.91 1 1002.1
20260505232616 10 250 3.2 8.0 0.58 1.88 1.88 1 1002.3
20260505231535 10 270 0.0 4.8 0.46 1.68 1.68 1 1002.0
20260505230634 10 0.0 0.0 0.46 1.63 1.63 1 1002.1
20260505225554 10 270 0.0 1.6 0.46 1.57 1.57 1 1002.3
20260505224533 10 0.0 0.0 0.38 1.45 1.45 2 1002.4
20260505223532 10 270 1.6 4.8 0.43 1.40 1.40 3 1002.0
20260505222652 10 144 0.0 1.6 0.38 1.30 1.30 3 1001.9
20260505221531 10 241 1.6 6.4 0.36 1.22 1.22 5 1001.9
20260505220600 10 248 0.0 1.6 0.36 1.17 1.17 6 1001.9
20260505215530 10 248 0.0 4.8 0.36 1.12 1.12 6 1002.0
20260505214559 10 274 1.6 6.4 0.33 1.07 1.07 7 1002.1
20260505213548 10 293 1.6 4.8 0.28 0.97 0.97 8 1001.7
20260505212527 10 297 3.2 6.4 0.28 0.91 0.91 7 1001.6
20260505211527 11 308 3.2 8.0 0.28 0.86 0.86 7 1001.6
20260505210626 11 304 1.6 4.8 0.30 0.79 0.79 7 1001.6
20260505205555 11 300 1.6 4.8 0.36 0.74 0.74 8 1001.6
20260505204523 11 261 3.2 8.0 0.43 0.71 0.71 8 1001.4
20260505203603 12 258 3.2 11.3 0.48 0.66 0.66 8 1001.3
20260505202542 12 217 1.6 6.4 0.53 0.61 0.61 10 1001.4
20260505201551 12 307 1.6 8.0 0.53 0.56 0.56 11 1001.3
20260505200610 12 231 3.2 6.4 0.48 0.48 0.48 13 1001.6
20260505195548 12 221 3.2 11.3 0.38 0.38 0.38 15 1001.6
20260505194538 13 214 3.2 11.3 0.28 0.28 0.28 17 1001.6
20260505193547 13 219 4.8 11.3 0.18 0.18 0.18 23 1001.4
20260505192546 13 275 4.8 12.9 0.08 0.08 0.08 25 1001.3
20260505191545 13 232 4.8 11.3 0.03 0.03 0.03 28 1001.3
20260505190624 14 228 6.4 17.7 0.00 0.00 0.00 31 1001.3
20260505185603 14 242 6.4 16.1 0.00 0.00 0.00 31 1001.3
20260505184543 14 225 8.0 22.5 0.00 0.00 0.00 31 1001.4
20260505183542 15 236 8.0 22.5 0.00 0.00 0.00 31 1001.3
20260505182541 14 249 6.4 16.1 0.00 0.00 0.00 32 1001.3
20260505181540 15 232 4.8 12.9 0.00 0.00 0.00 34 1001.3
20260505180540 15 228 6.4 22.5 0.00 0.00 0.00 37 1001.1
20260505175539 15 227 6.4 16.1 0.00 0.00 0.00 38 1001.2
20260505174538 15 223 8.0 17.7 0.00 0.00 0.00 41 1001.0
20260505173558 15 234 6.4 22.5 0.00 0.00 0.00 43 1000.9
20260505172537 15 253 6.4 17.7 0.00 0.00 0.00 43 1000.6
20260505171557 15 230 6.4 16.1 0.00 0.00 0.00 47 1000.5
20260505170536 16 238 4.8 16.1 0.00 0.00 0.00 50 1000.3
20260505165625 16 230 6.4 24.1 0.00 0.00 0.00 54 1000.4
20260505164535 17 262 4.8 16.1 0.00 0.00 0.00 57 1000.5
20260505163534 17 239 11.3 24.1 0.00 0.00 0.00 59 1000.3
20260505162533 18 241 9.7 29.0 0.00 0.00 0.00 59 1000.3
20260505161532 19 249 6.4 16.1 0.00 0.00 0.00 59 1000.5
20260505160602 19 250 8.0 25.7 0.00 0.00 0.00 59 1000.3
20260505152529 20 240 8.0 19.3 0.00 0.00 0.00 58 999.2
20260505151558 20 225 14.5 25.7 0.00 0.00 0.00 58 999.3
20260505150528 19 232 9.7 25.7 0.00 0.00 0.00 58 999.6
20260505140612 20 215 11.3 30.6 0.00 0.00 0.00 58 998.6